[[{"header":{"parameterUnit":"m.s-1","parameterCategory":1,"la1":30.2991,"la2":30.254,"lo1":-89.0895,"lo2":-89.0444,"dy":0.0017,"dx":0.0017,"nx":28,"ny":28,"refTime":"2025-04-25T03:00:00:Z","depth":0,"parameterNumber":2,"parameterNumberName":"U-component_of_WINDS"},"data":[0,0,0,0,0,0,0,0,0,0,0,0,0,0,0,0,0,0,0,0,0,0,0,0,0,0,0,0,0,0,0,0,0,0,0,0,0,0,0,0,0,0,0,0,0,0,0,0,0,0,0,0,0,0,0,0,0,0,-0.3082,-0.3082,0,-0.3055,-0.3055,-0.3055,-0.3081,-0.3082,-0.3083,-0.3084,-0.3054,-0.3052,-0.3051,0,0,0,0,0,0,0,0,0,0,0,0,0,-0.3156,-0.3155,-0.3082,-0.3082,-0.3082,-0.3055,-0.3055,-0.3055,-0.3081,-0.3082,-0.3084,-0.3085,-0.3055,-0.3053,-0.305,0,0,0,0,0,0,0,0,0,0,0,0,0,-0.3126,-0.3154,-0.3082,-0.3092,-0.3092,-0.3055,-0.3055,-0.3054,-0.3081,-0.3082,-0.3084,-0.3085,-0.3055,-0.3053,-0.305,-0.3002,0,0,-0.3042,-0.3041,0,0,0,0,0,0,0,0,-0.3128,-0.3123,-0.3091,-0.3091,-0.3092,-0.3073,-0.307,-0.3037,-0.308,-0.3085,-0.3084,-0.3086,-0.3059,-0.3056,-0.3048,-0.3,-0.2999,-0.3042,-0.304,-0.3039,-0.3038,0,0,0,0,0,0,0,-0.313,-0.3125,-0.3072,-0.309,-0.3091,-0.3097,-0.3095,-0.3064,-0.3063,-0.3085,-0.3087,-0.3083,-0.306,-0.305,-0.3047,-0.2999,-0.3042,-0.3039,-0.3038,-0.3037,-0.2912,-0.291,0,0,0,0,0,0,-0.3131,-0.3126,-0.3072,-0.3071,-0.3114,-0.3094,-0.3092,-0.3078,-0.3064,-0.3063,-0.3082,-0.3085,-0.3054,-0.305,-0.3046,-0.2989,-0.3039,-0.3036,-0.3035,-0.2914,-0.2912,-0.291,0,0,0,0,0,0,-0.3133,-0.3126,-0.3074,-0.3099,-0.3093,-0.3092,-0.3075,-0.3076,-0.3067,-0.3062,-0.3062,-0.3072,-0.3055,-0.305,-0.3013,-0.2988,-0.3035,-0.3033,-0.2916,-0.2913,-0.2911,-0.2875,0,0,0,0,0,0,-0.3135,-0.3126,-0.3108,-0.3098,-0.3091,-0.3041,-0.3074,-0.3074,-0.3062,-0.3065,-0.3053,-0.3052,-0.3056,-0.3017,-0.301,-0.2986,-0.3031,-0.2918,-0.2915,-0.2912,-0.2878,-0.2871,-0.2865,0,0,0,0,0,-0.3137,-0.3098,-0.3107,-0.31,-0.3068,-0.304,-0.3035,-0.3041,-0.306,-0.3042,-0.3039,-0.3052,-0.2993,-0.3013,-0.3006,-0.298,-0.2919,-0.2916,-0.2912,-0.2881,-0.2872,-0.2865,0,0,0,0,0,0,-0.3103,-0.3097,-0.3107,-0.3063,-0.3052,-0.3044,-0.3021,-0.3032,-0.3014,-0.3018,-0.3026,-0.3023,-0.2984,-0.2978,-0.3001,-0.2933,-0.2959,-0.2954,-0.2938,-0.293,-0.2924,-0.2925,-0.3028,0,0,0,0,0,-0.3091,-0.3069,-0.3064,-0.3027,-0.3021,-0.3022,-0.3009,-0.3015,-0.3003,-0.2998,-0.2993,-0.298,-0.2959,-0.2944,-0.2924,-0.2878,-0.2876,-0.2857,-0.285,-0.2845,-0.284,-0.2816,-0.2808,-0.2897,-0.2897,-0.2897,0,0,-0.3065,-0.3059,-0.3044,-0.302,-0.3011,-0.2988,-0.3017,-0.2991,-0.2973,-0.2994,-0.2959,-0.2955,-0.2942,-0.29,-0.2882,-0.2894,-0.2815,-0.284,-0.2836,-0.2834,-0.2811,-0.2803,-0.2795,-0.2895,-0.2895,-0.2896,0,0,-0.3006,-0.2999,-0.2967,-0.2959,-0.2947,-0.2948,-0.2941,-0.2932,-0.293,-0.2895,-0.2911,-0.289,-0.2853,-0.2843,-0.2833,-0.2773,-0.2784,-0.2766,-0.2732,-0.2709,-0.2702,-0.2695,-0.2674,-0.2666,-0.2761,-0.2761,-0.2761,0,-0.2975,-0.294,-0.2949,-0.2922,-0.2911,-0.293,-0.2898,-0.289,-0.2871,-0.2863,-0.2878,-0.2833,-0.2825,-0.2782,-0.2768,-0.2759,-0.2751,-0.2767,-0.2702,-0.2696,-0.269,-0.267,-0.2662,-0.2759,-0.2759,-0.2759,-0.2759,0,-0.2903,-0.2879,-0.2855,-0.2838,-0.2824,-0.2795,-0.2799,-0.2784,-0.2792,-0.2792,-0.2757,-0.2749,-0.2728,-0.2719,-0.2725,-0.2677,-0.2685,-0.2701,-0.2727,-0.2679,-0.266,-0.2653,-0.2756,-0.2756,-0.2757,-0.2758,0,0,-0.2819,-0.2809,-0.28,-0.2793,-0.2782,-0.2764,-0.2736,-0.2717,-0.2704,-0.2691,-0.2668,-0.2637,-0.2652,-0.2641,-0.2647,-0.2626,-0.2579,-0.2645,-0.2645,-0.2633,-0.2526,-0.2514,-0.2505,-0.2588,-0.2587,-0.2585,-0.2527,0,-0.276,-0.2711,-0.2719,-0.2672,-0.2651,-0.267,-0.2646,-0.2636,-0.2636,-0.2617,-0.2617,-0.2595,-0.2617,-0.261,-0.2591,-0.2589,-0.2558,-0.2594,-0.2566,-0.2565,-0.2568,-0.2495,-0.2481,-0.2427,-0.252,-0.2519,-0.2518,0,-0.2683,-0.2669,-0.262,-0.2614,-0.2605,-0.2583,-0.2567,-0.2549,-0.2539,-0.254,-0.2529,-0.2539,-0.2512,-0.2539,-0.2501,-0.2525,-0.2515,-0.2512,-0.251,-0.2507,-0.2538,-0.2489,-0.241,-0.2401,-0.2506,-0.2507,-0.2508,0,-0.2627,-0.2596,-0.2563,-0.2556,-0.2548,-0.2532,-0.2528,-0.252,-0.2509,-0.2495,-0.2487,-0.247,-0.246,-0.2446,-0.2452,-0.2471,-0.2413,-0.2441,-0.2413,-0.2413,-0.2398,-0.2399,-0.2315,-0.2393,-0.2393,-0.2393,-0.2393,0,-0.2559,-0.2528,-0.2538,-0.2517,-0.2484,-0.2494,-0.2461,-0.2459,-0.2452,-0.2431,-0.2447,-0.2427,-0.2436,-0.2417,-0.2422,-0.239,-0.2385,-0.2385,-0.2387,-0.2384,-0.2384,-0.2376,-0.238,-0.2391,-0.2391,-0.2392,-0.2392,0,-0.249,-0.2495,-0.2461,-0.2457,-0.2455,-0.2431,-0.2427,-0.2408,-0.241,-0.2384,-0.2379,-0.2381,-0.236,-0.2365,-0.2341,-0.2344,-0.2304,-0.2311,-0.2308,-0.2309,-0.2281,-0.2283,-0.2189,-0.2177,-0.2262,-0.2262,-0.2261,0,-0.2446,-0.2423,-0.2417,-0.2405,-0.24,-0.2381,-0.2369,-0.2379,-0.2367,-0.2355,-0.2337,-0.2318,-0.2303,-0.2268,-0.2268,-0.225,-0.2256,-0.2224,-0.2253,-0.2251,-0.2255,-0.2257,-0.2255,-0.2218,-0.2217,-0.2216,-0.2216,0,-0.2367,-0.2372,-0.2355,-0.234,-0.2326,-0.2314,-0.2304,-0.2293,-0.2302,-0.2288,-0.2267,-0.2255,-0.2232,-0.2213,-0.2197,-0.2193,-0.2205,-0.2207,-0.22,-0.2196,-0.2195,-0.2195,-0.2291,-0.2209,-0.2209,-0.221,-0.221,-0.2211,-0.2309,-0.229,-0.2284,-0.2265,-0.2259,-0.2249,-0.2232,-0.2232,-0.2215,-0.2198,-0.2205,-0.2181,-0.2173,-0.2153,-0.2147,-0.2129,-0.2141,-0.213,-0.2127,-0.2124,-0.2121,-0.2199,-0.2126,-0.2127,-0.2127,-0.2127,-0.2127,0,-0.2232,-0.2229,-0.2212,-0.2197,-0.2183,-0.2198,-0.2188,-0.2175,-0.2154,-0.2146,-0.2131,-0.2108,-0.209,-0.2089,-0.2072,-0.2057,-0.2063,-0.2052,-0.2053,-0.2052,-0.2111,-0.2119,-0.2048,-0.2048,-0.2048,-0.2048,-0.2048,-0.2048,-0.2189,-0.2158,-0.2162,-0.2128,-0.2125,-0.2103,-0.2096,-0.2087,-0.2081,-0.2055,-0.204,-0.204,-0.2035,-0.2018,-0.2002,-0.2002,-0.1995,-0.1983,-0.1985,-0.204,-0.2048,-0.2055,-0.2063,-0.1981,-0.1981,-0.1927,-0.1927,-0.1926]},{"header":{"parameterUnit":"m.s-1","parameterCategory":1,"la1":30.2991,"la2":30.254,"lo1":-89.0895,"lo2":-89.0444,"dy":0.0017,"dx":0.0017,"nx":28,"ny":28,"refTime":"2025-04-25T03:00:00:Z","depth":0,"parameterNumber":3,"parameterNumberName":"V-component_of_WINDS"},"data":[0,0,0,0,0,0,0,0,0,0,0,0,0,0,0,0,0,0,0,0,0,0,0,0,0,0,0,0,0,0,0,0,0,0,0,0,0,0,0,0,0,0,0,0,0,0,0,0,0,0,0,0,0,0,0,0,0,0,2.0918,2.0918,0,2.088,2.0879,2.0879,2.0853,2.0853,2.0853,2.0853,2.0811,2.081,2.0809,0,0,0,0,0,0,0,0,0,0,0,0,0,2.0967,2.0967,2.0918,2.0917,2.0917,2.088,2.0879,2.0879,2.0853,2.0853,2.0853,2.0853,2.0811,2.081,2.0809,0,0,0,0,0,0,0,0,0,0,0,0,0,2.0939,2.0966,2.0918,2.09,2.0898,2.088,2.0879,2.0878,2.0853,2.0853,2.0853,2.0853,2.0812,2.081,2.0809,2.0805,0,0,2.0805,2.0804,0,0,0,0,0,0,0,0,2.0941,2.0937,2.0903,2.0901,2.0899,2.0871,2.0881,2.0854,2.0853,2.087,2.0853,2.0853,2.0831,2.0828,2.0821,2.0803,2.0801,2.0804,2.0804,2.0803,2.0802,0,0,0,0,0,0,0,2.0943,2.0939,2.0903,2.0903,2.09,2.0893,2.0889,2.0876,2.0852,2.0869,2.0867,2.0863,2.083,2.0823,2.082,2.08,2.0804,2.0803,2.0802,2.0802,2.0776,2.0776,0,0,0,0,0,0,2.0948,2.0941,2.0904,2.0902,2.092,2.0892,2.0888,2.088,2.0852,2.0848,2.0863,2.0862,2.0825,2.0822,2.0818,2.0811,2.0803,2.0802,2.0801,2.0776,2.0776,2.0776,0,0,0,0,0,0,2.0949,2.0945,2.0905,2.0921,2.0915,2.0892,2.0884,2.088,2.0872,2.0848,2.0844,2.086,2.0825,2.0821,2.0808,2.081,2.0801,2.08,2.0776,2.0776,2.0776,2.0797,0,0,0,0,0,0,2.095,2.0945,2.0944,2.0921,2.0914,2.0897,2.0884,2.0879,2.087,2.0868,2.0844,2.084,2.0824,2.0811,2.0807,2.0807,2.0798,2.0775,2.0776,2.0776,2.0796,2.0798,2.08,0,0,0,0,0,2.0952,2.0951,2.0944,2.094,2.0912,2.0897,2.0893,2.0876,2.087,2.0869,2.0853,2.0841,2.081,2.081,2.0805,2.0805,2.0775,2.0776,2.0776,2.0796,2.0798,2.08,0,0,0,0,0,0,2.0974,2.0948,2.094,2.0931,2.0917,2.0893,2.089,2.0879,2.0865,2.0864,2.0842,2.0837,2.0827,2.0815,2.0815,2.08,2.0791,2.0791,2.0808,2.081,2.0811,2.0814,2.0797,0,0,0,0,0,2.0978,2.0969,2.0946,2.094,2.0934,2.0913,2.0906,2.0894,2.0877,2.0871,2.0854,2.0839,2.0825,2.0817,2.0803,2.0795,2.0789,2.0793,2.0794,2.0796,2.0796,2.079,2.0791,2.0778,2.0778,2.0778,0,0,2.0986,2.097,2.0965,2.0944,2.0932,2.0921,2.0908,2.0898,2.089,2.0869,2.0857,2.0844,2.0825,2.0815,2.0809,2.0804,2.0798,2.0797,2.0798,2.0797,2.079,2.0791,2.0792,2.0778,2.0778,2.0778,0,0,2.0995,2.0983,2.0976,2.0964,2.0946,2.0932,2.0931,2.0909,2.09,2.0887,2.0871,2.0861,2.0839,2.0826,2.0816,2.0821,2.0808,2.0817,2.0825,2.082,2.0821,2.0822,2.0822,2.0823,2.0817,2.0817,2.0817,0,2.1007,2.0991,2.0974,2.0965,2.0956,2.0938,2.0931,2.092,2.0897,2.0891,2.0886,2.0858,2.0844,2.083,2.0831,2.0824,2.0821,2.0819,2.0822,2.0823,2.0823,2.0824,2.0824,2.0818,2.0818,2.0817,2.0817,0,2.1006,2.0996,2.0993,2.0973,2.0963,2.0956,2.0937,2.0929,2.0918,2.0905,2.0892,2.0874,2.0857,2.0853,2.0842,2.0837,2.0835,2.0827,2.0818,2.0826,2.0826,2.0826,2.0819,2.0819,2.0818,2.0818,0,0,2.1027,2.0998,2.0997,2.0988,2.0966,2.0957,2.0948,2.0932,2.0925,2.0911,2.0902,2.0884,2.0876,2.0865,2.0853,2.0848,2.0852,2.084,2.0839,2.0842,2.0845,2.085,2.0851,2.0844,2.0844,2.0844,2.0846,0,2.1032,2.1016,2.1,2.0989,2.0979,2.0962,2.0954,2.0939,2.0927,2.0916,2.0902,2.0889,2.088,2.0873,2.0868,2.0852,2.0852,2.0852,2.0835,2.0834,2.0839,2.0851,2.0857,2.086,2.0846,2.0846,2.0846,0,2.1035,2.1022,2.101,2.099,2.0985,2.0978,2.0962,2.0952,2.0935,2.0926,2.0914,2.0901,2.089,2.0883,2.0867,2.0868,2.086,2.0851,2.085,2.0847,2.084,2.0847,2.086,2.086,2.0846,2.0846,2.0846,0,2.1051,2.103,2.102,2.1013,2.0988,2.0984,2.0973,2.0956,2.0947,2.0933,2.0927,2.0911,2.0902,2.089,2.0873,2.087,2.0858,2.085,2.085,2.085,2.0847,2.0848,2.0858,2.0844,2.0844,2.0844,2.0844,0,2.1057,2.105,2.1027,2.102,2.1012,2.0994,2.0986,2.0974,2.0959,2.095,2.0934,2.0925,2.0904,2.0892,2.0878,2.0867,2.0863,2.0855,2.0851,2.0856,2.0857,2.0849,2.0849,2.0844,2.0844,2.0844,2.0844,0,2.1072,2.1056,2.1044,2.1023,2.1017,2.1012,2.0993,2.0986,2.0973,2.0961,2.0957,2.0937,2.0922,2.0904,2.0884,2.0875,2.0864,2.0859,2.087,2.0868,2.0868,2.0868,2.0874,2.0873,2.086,2.086,2.0861,0,2.1077,2.1072,2.105,2.1043,2.1033,2.1022,2.1013,2.0995,2.0987,2.0967,2.0962,2.0947,2.0933,2.0911,2.0894,2.0878,2.0872,2.0875,2.0869,2.0874,2.0871,2.0871,2.087,2.0876,2.0876,2.0876,2.0877,0,2.1087,2.108,2.1068,2.1053,2.1043,2.1031,2.1018,2.1013,2.0992,2.0983,2.0968,2.0958,2.0938,2.0923,2.0905,2.0893,2.0881,2.0879,2.0878,2.0882,2.0888,2.0884,2.0873,2.0878,2.0878,2.0878,2.0878,2.0878,2.1097,2.1091,2.1075,2.1062,2.105,2.1038,2.1031,2.1017,2.1005,2.0988,2.0978,2.0964,2.0946,2.0921,2.091,2.0898,2.0894,2.0892,2.0892,2.0891,2.0893,2.0891,2.0895,2.0895,2.0895,2.0895,2.0895,0,2.1105,2.1094,2.1083,2.1065,2.1055,2.1046,2.1031,2.1023,2.1011,2.0996,2.0984,2.0967,2.0952,2.0934,2.0917,2.0911,2.0905,2.0907,2.0907,2.0905,2.0898,2.09,2.0913,2.0913,2.0913,2.0913,2.0913,2.0913,2.1108,2.1098,2.1088,2.1072,2.106,2.1047,2.1039,2.1028,2.1016,2.0998,2.0986,2.0975,2.0959,2.0941,2.0927,2.0922,2.0916,2.092,2.0913,2.0907,2.0905,2.0904,2.0905,2.0919,2.0919,2.092,2.092,2.092]}]]